When you browse on this site, cookies collect data to enhance your experience and personalize the content and advertising you see.
Visit our Privacy Policy to learn more. By continuing to use the site, you agree to this use of cookies and data.
  • In United Kingdom
  • List of Countries
  • For 7 days
  • Water Temperature
  • Weather Map
  • Weather Widgets
  • user-avatar
    Login

    Hourly Weather Neuquén

    Today, 25 May, Monday

    Time Temperature Precipitation Wind Pressure Humidity
    00:00 +12°C° 0 mm 3 mps 735 mmHg 47%
    01:00 +11°C° 0 mm 3 mps 736 mmHg 45%
    02:00 +12°C° 0 mm 2 mps 736 mmHg 44%
    03:00 +10°C° 0 mm 2 mps 736 mmHg 43%
    04:00 +10°C° 0 mm 2 mps 737 mmHg 42%
    05:00 +10°C° 0 mm 2 mps 737 mmHg 41%
    06:00 +9°C° 0 mm 2 mps 737 mmHg 41%
    07:00 +9°C° 0 mm 2 mps 738 mmHg 41%
    08:00 +12°C° 0 mm 2 mps 738 mmHg 36%
    09:00 +14°C° 0 mm 2 mps 738 mmHg 30%
    10:00 +16°C° 0 mm 2 mps 738 mmHg 25%
    11:00 +17°C° 0 mm 2 mps 738 mmHg 24%
    12:00 +18°C° 0 mm 3 mps 738 mmHg 22%
    13:00 +19°C° 0 mm 3 mps 737 mmHg 20%
    14:00 +19°C° 0 mm 3 mps 737 mmHg 22%
    15:00 +18°C° 0 mm 3 mps 736 mmHg 23%
    16:00 +18°C° 0 mm 3 mps 735 mmHg 24%
    17:00 +17°C° 0 mm 3 mps 735 mmHg 27%
    18:00 +16°C° 0 mm 3 mps 735 mmHg 30%
    19:00 +14°C° 0 mm 4 mps 735 mmHg 33%
    20:00 +13°C° 0 mm 3 mps 735 mmHg 35%
    21:00 +12°C° 0 mm 3 mps 735 mmHg 38%
    22:00 +12°C° 0 mm 3 mps 735 mmHg 40%
    23:00 +12°C° 0 mm 3 mps 734 mmHg 41%

    Tomorrow, 26 May, Tuesday

    Time Temperature Precipitation Wind Pressure Humidity
    00:00 +11°C° 0 mm 3 mps 734 mmHg 42%
    01:00 +11°C° 0 mm 3 mps 733 mmHg 43%
    02:00 +10°C° 0 mm 2 mps 733 mmHg 44%
    03:00 +10°C° 0 mm 2 mps 732 mmHg 45%
    04:00 +10°C° 0 mm 1 mps 732 mmHg 46%
    05:00 +10°C° 0 mm 1 mps 731 mmHg 46%
    06:00 +10°C° 0 mm 1 mps 731 mmHg 47%
    07:00 +9°C° 0 mm 0 mps 731 mmHg 47%
    08:00 +12°C° 0 mm 1 mps 731 mmHg 41%
    09:00 +15°C° 0 mm 1 mps 731 mmHg 34%
    10:00 +18°C° 0 mm 1 mps 731 mmHg 28%
    11:00 +19°C° 0 mm 2 mps 731 mmHg 26%
    12:00 +20°C° 0 mm 2 mps 730 mmHg 24%
    13:00 +21°C° 0 mm 2 mps 730 mmHg 22%
    14:00 +21°C° 0 mm 2 mps 730 mmHg 24%
    15:00 +20°C° 0 mm 2 mps 730 mmHg 26%
    16:00 +19°C° 0 mm 2 mps 729 mmHg 28%
    17:00 +17°C° 0 mm 2 mps 730 mmHg 31%
    18:00 +16°C° 0 mm 2 mps 730 mmHg 34%
    19:00 +15°C° 0 mm 1 mps 730 mmHg 37%
    20:00 +15°C° 0 mm 1 mps 730 mmHg 37%
    21:00 +14°C° 0 mm 2 mps 730 mmHg 38%
    22:00 +14°C° 0 mm 2 mps 731 mmHg 39%
    23:00 +14°C° 0 mm 2 mps 731 mmHg 40%

    Day after tomorrow, 27 May, Wednesday

    Time Temperature Precipitation Wind Pressure Humidity
    00:00 +14°C° 0 mm 2 mps 731 mmHg 42%
    01:00 +14°C° 0 mm 2 mps 731 mmHg 44%
    02:00 +13°C° 0 mm 2 mps 731 mmHg 47%
    03:00 +13°C° 0 mm 2 mps 731 mmHg 50%
    04:00 +13°C° 0 mm 2 mps 731 mmHg 53%
    05:00 +13°C° 0 mm 2 mps 731 mmHg 56%
    06:00 +12°C° 0 mm 2 mps 731 mmHg 59%
    07:00 +12°C° 0 mm 1 mps 731 mmHg 62%
    08:00 +14°C° 0 mm 2 mps 732 mmHg 55%
    09:00 +17°C° 0 mm 2 mps 733 mmHg 48%
    10:00 +19°C° 0 mm 2 mps 733 mmHg 41%
    11:00 +20°C° 0 mm 2 mps 733 mmHg 39%
    12:00 +21°C° 0 mm 3 mps 732 mmHg 37%
    13:00 +22°C° 0 mm 3 mps 732 mmHg 34%
    14:00 +21°C° 0 mm 4 mps 732 mmHg 36%
    15:00 +20°C° 0 mm 4 mps 732 mmHg 38%
    16:00 +19°C° 0 mm 5 mps 732 mmHg 40%
    17:00 +17°C° 0 mm 6 mps 732 mmHg 41%
    18:00 +15°C° 0 mm 6 mps 732 mmHg 42%
    19:00 +14°C° 0 mm 6 mps 733 mmHg 43%
    20:00 +13°C° 0 mm 6 mps 733 mmHg 42%
    21:00 +12°C° 0 mm 5 mps 733 mmHg 42%
    22:00 +10°C° 0 mm 5 mps 733 mmHg 41%
    23:00 +10°C° 0 mm 5 mps 732 mmHg 44%

    28 May, Thursday

    Time Temperature Precipitation Wind Pressure Humidity
    00:00 +10°C° 0 mm 4 mps 732 mmHg 46%
    01:00 +10°C° 0 mm 4 mps 732 mmHg 48%
    02:00 +10°C° 0 mm 4 mps 732 mmHg 49%
    03:00 +10°C° 0 mm 4 mps 732 mmHg 50%
    04:00 +10°C° 0 mm 4 mps 731 mmHg 51%
    05:00 +8°C° 0 mm 4 mps 731 mmHg 52%
    06:00 +9°C° 0 mm 3 mps 731 mmHg 54%
    07:00 +8°C° 0 mm 3 mps 731 mmHg 55%
    08:00 +9°C° 0 mm 3 mps 731 mmHg 54%
    09:00 +12°C° 0 mm 2 mps 731 mmHg 53%
    10:00 +13°C° 0 mm 2 mps 732 mmHg 52%
    11:00 +14°C° 0 mm 2 mps 731 mmHg 49%
    12:00 +15°C° 0 mm 2 mps 731 mmHg 47%
    13:00 +16°C° 0 mm 2 mps 730 mmHg 45%
    14:00 +14°C° 0 mm 3 mps 730 mmHg 45%
    15:00 +14°C° 0 mm 4 mps 730 mmHg 45%
    16:00 +14°C° 0 mm 6 mps 730 mmHg 45%
    17:00 +13°C° 0 mm 6 mps 731 mmHg 40%
    18:00 +13°C° 0 mm 6 mps 731 mmHg 36%
    19:00 +11°C° 0 mm 6 mps 731 mmHg 31%
    20:00 +10°C° 0 mm 7 mps 732 mmHg 32%
    21:00 +9°C° 0 mm 7 mps 732 mmHg 33%
    22:00 +7°C° 0 mm 8 mps 733 mmHg 34%
    23:00 +6°C° 0 mm 7 mps 733 mmHg 32%

    29 May, Friday

    Time Temperature Precipitation Wind Pressure Humidity
    00:00 +5°C° 0 mm 7 mps 733 mmHg 30%
    01:00 +5°C° 0 mm 7 mps 734 mmHg 28%
    02:00 +4°C° 0 mm 7 mps 734 mmHg 30%
    03:00 +4°C° 0 mm 7 mps 734 mmHg 33%
    04:00 +4°C° 0 mm 7 mps 734 mmHg 35%
    05:00 +3°C° 0 mm 7 mps 734 mmHg 37%
    06:00 +3°C° 0 mm 7 mps 735 mmHg 39%
    07:00 +3°C° 0 mm 7 mps 735 mmHg 41%
    08:00 +4°C° 0 mm 8 mps 735 mmHg 36%
    09:00 +6°C° 0 mm 9 mps 735 mmHg 31%
    10:00 +7°C° 0 mm 10 mps 736 mmHg 26%
    11:00 +8°C° 0 mm 10 mps 735 mmHg 26%
    12:00 +8°C° 0 mm 10 mps 735 mmHg 25%
    13:00 +9°C° 0 mm 10 mps 735 mmHg 25%
    14:00 +10°C° 0 mm 9 mps 736 mmHg 28%
    15:00 +9°C° 0 mm 7 mps 736 mmHg 31%
    16:00 +9°C° 0 mm 6 mps 736 mmHg 34%
    17:00 +8°C° 0 mm 6 mps 737 mmHg 43%
    18:00 +6°C° 0 mm 7 mps 738 mmHg 53%
    19:00 +5°C° 0 mm 7 mps 738 mmHg 62%
    20:00 +5°C° 0 mm 6 mps 739 mmHg 63%
    21:00 +6°C° 0 mm 4 mps 739 mmHg 64%
    22:00 +7°C° 0 mm 3 mps 740 mmHg 65%
    23:00 +5°C° 0 mm 3 mps 740 mmHg 65%

    30 May, Saturday

    Time Temperature Precipitation Wind Pressure Humidity
    00:00 +4°C° 0 mm 3 mps 741 mmHg 64%
    01:00 +4°C° 0 mm 3 mps 741 mmHg 64%
    02:00 +3°C° 0 mm 3 mps 741 mmHg 64%
    03:00 +3°C° 0 mm 3 mps 741 mmHg 65%
    04:00 +3°C° 0 mm 4 mps 741 mmHg 65%
    05:00 +2°C° 0 mm 3 mps 742 mmHg 64%
    06:00 +2°C° 0 mm 3 mps 742 mmHg 63%
    07:00 +2°C° 0 mm 3 mps 742 mmHg 62%
    08:00 +3°C° 0 mm 3 mps 742 mmHg 55%
    09:00 +5°C° 0 mm 3 mps 742 mmHg 47%
    10:00 +7°C° 0 mm 3 mps 743 mmHg 39%
    11:00 +8°C° 0 mm 2 mps 742 mmHg 38%
    12:00 +8°C° 0 mm 2 mps 742 mmHg 37%
    13:00 +9°C° 0 mm 2 mps 741 mmHg 35%
    14:00 +9°C° 0 mm 2 mps 741 mmHg 36%
    15:00 +8°C° 0 mm 2 mps 741 mmHg 37%
    16:00 +8°C° 0 mm 2 mps 741 mmHg 38%
    17:00 +7°C° 0 mm 2 mps 741 mmHg 40%
    18:00 +6°C° 0 mm 2 mps 741 mmHg 42%
    19:00 +5°C° 0 mm 2 mps 742 mmHg 44%
    20:00 +5°C° 0 mm 2 mps 742 mmHg 46%
    21:00 +5°C° 0 mm 2 mps 742 mmHg 47%
    22:00 +4°C° 0 mm 2 mps 742 mmHg 49%
    23:00 +4°C° 0 mm 2 mps 741 mmHg 53%
    Show more